Flag for Argentina Weather past 2 weeks in Buenos Aires, Argentina

Now
70 °F

Passing clouds.


Feels Like: 70 °F
Forecast: N/A
Wind: 5 mph from Northeast

Location: Buenos Aires Airport

Current Time: Jul 28, 2015 at 5:55:44 PM

Latest Report: Jul 28, 2015 at 5:00 PM


Visibility: N/A

Pressure: 29.77 "Hg

Humidity: 73%

Dew point: 61 °F

Location of Buenos AiresLocation

Historic Weather in Buenos Aires — Graph

°F

Buenos Aires temperature yesterday

Maximum temperature yesterday: 66 °F (at 3:00 PM)
Minimum temperature yesterday: 55 °F (at 8:00 AM)
Average temperature yesterday: 60 °F

Past Weeks' High & Low Weather Summary

 TemperatureHumidityPressure
High72 °F (Jul 28, 4:00 PM)94% (Jul 18, 4:00 AM)30.33 "Hg (Jul 18, 4:00 AM)
Low39 °F (Jul 15, 4:00 AM)28% (Jul 14, 6:00 PM)29.74 "Hg (Jul 13, 5:00 PM)
Average54 °F70%30.14 "Hg
* Reported Jul 13 5:00 PM — Jul 28 5:00 PM, Buenos Aires, Weather by CustomWeather, © 2015

Note: Actual official high and low records may vary slightly from our data, if they occured in-between our weather recording intervals... More about our weather records

Advertising

Buenos Aires weather history for previous 24 hours

 ConditionsComfort  
Time TempWeatherWind HumidityBarometerVisibility
5:00 PM
Tue, Jul 28
70 °FPassing clouds.5 mph73%29.77 "HgN/A
4:00 PM72 °FPassing clouds.8 mph69%29.77 "HgN/A
3:00 PM70 °FPassing clouds.5 mph73%29.77 "HgN/A
2:00 PM68 °FBroken clouds.7 mph78%29.80 "HgN/A
1:00 PM66 °FPartly sunny.2 mph78%29.83 "HgN/A
12:00 PM64 °FPartly sunny.5 mph78%29.83 "HgN/A
11:00 AM63 °FBroken clouds.5 mph83%29.86 "HgN/A
10:00 AM63 °FPartly sunny.5 mph77%29.86 "HgN/A
9:00 AM61 °FPartly sunny.7 mph83%29.83 "HgN/A
8:00 AM61 °FPartly sunny.7 mph83%29.83 "HgN/A
7:00 AM61 °FSunny.7 mph83%29.83 "Hg10 mi
6:00 AM61 °FPassing clouds.2 mph83%29.83 "HgN/A
5:00 AM61 °FPassing clouds.3 mph83%29.83 "HgN/A
4:00 AM61 °FPassing clouds.5 mph83%29.86 "HgN/A
3:00 AM61 °FPassing clouds.2 mph83%29.86 "HgN/A
2:00 AM61 °FPassing clouds.6 mph83%29.89 "HgN/A
1:00 AM61 °FPassing clouds.9 mph83%29.89 "HgN/A
12:00 AM63 °FClear.5 mph73%29.86 "Hg10 mi
11:00 PM
Mon, Jul 27
61 °FClear.5 mph83%29.86 "Hg10 mi
10:00 PM61 °FClear.6 mph83%29.83 "Hg10 mi
9:00 PM61 °FClear.2 mph83%29.86 "Hg10 mi
8:00 PM63 °FClear.2 mph77%29.86 "Hg10 mi
7:00 PM63 °FClear.7 mph77%29.83 "Hg10 mi
6:00 PM63 °FClear.8 mph83%29.83 "Hg10 mi
5:00 PM64 °FSunny.9 mph78%29.83 "Hg10 mi
Weather by CustomWeather, © 2015

See weather overviewHow to use our weather pages